This is the latest recevied weather packets stored in our database for station/object HB9HJL-11. If no packets are shown the sender has not sent any weather packets the latest 10 day(s).
| Time | Temp. | Humidity | Pressure | Rain* | Wind** | Luminosity | Snow |
|---|---|---|---|---|---|---|---|
| 1777308433 | 21.67° C | 33% | 929 hPa | - | - | - | - |
| 1777307533 | 22.78° C | 32% | 929 hPa | - | - | - | - |
| 1777306633 | 23.33° C | 30% | 928 hPa | - | - | - | - |
| 1777305733 | 23.33° C | 30% | 927 hPa | - | - | - | - |
| 1777304833 | 23.89° C | 30% | 927 hPa | - | - | - | - |
| 1777303932 | 23.89° C | 29% | 926 hPa | - | - | - | - |
| 1777303032 | 24.44° C | 27% | 925 hPa | - | - | - | - |
| 1777302132 | 22.22° C | 29% | 921 hPa | - | - | - | - |
| 1777301232 | 24.44° C | 28% | 925 hPa | - | - | - | - |
| 1777300332 | 25° C | 28% | 925 hPa | - | - | - | - |
| 1777299432 | 23.89° C | 28% | 923 hPa | - | - | - | - |
| 1777298532 | 24.44° C | 28% | 925 hPa | - | - | - | - |
| 1777297632 | 25° C | 28% | 926 hPa | - | - | - | - |
| 1777296732 | 25° C | 27% | 925 hPa | - | - | - | - |
| 1777295831 | 25° C | 28% | 926 hPa | - | - | - | - |
| 1777294931 | 24.44° C | 27% | 925 hPa | - | - | - | - |
| 1777294031 | 23.89° C | 26% | 921 hPa | - | - | - | - |
| 1777293131 | 23.89° C | 27% | 921 hPa | - | - | - | - |
| 1777292231 | 24.44° C | 26% | 922 hPa | - | - | - | - |
| 1777291331 | 23.89° C | 27% | 922 hPa | - | - | - | - |
| 1777290431 | 22.22° C | 26% | 917 hPa | - | - | - | - |
| 1777289531 | 23.89° C | 27% | 923 hPa | - | - | - | - |
| 1777288631 | 23.33° C | 27% | 921 hPa | - | - | - | - |
| 1777287731 | 23.33° C | 28% | 925 hPa | - | - | - | - |
| 1777286830 | 23.89° C | 28% | 924 hPa | - | - | - | - |
* Rain since midnight (hover to see other rain measurements)
** Current wind speed in m/s (hover to see current wind gust speed)